Location: Sternwarte_Laufen
(47.9344°N, 12.9346°E)
Time: 03:13:52
(UTC+02:00)

ISS - Pass Details

Date: 13 July 2025
Orbit: 413 x 417 km, 51.6° (Epoch: 12 July)

Event Time Altitude Azimuth Distance (km) Brightness Sun altitude
Rises 21:56:22 0° 259° (WSW) 2,347 0.6 -7.5°
Reaches altitude 10° 21:58:29 10° 263° (W) 1,487 -0.4 -7.7°
Maximum altitude 22:01:47 59° 344° (NNW) 484 -3.1 -8.1°
Drops below altitude 10° 22:05:06 10° 65° (ENE) 1,493 -1.1 -8.5°
Sets 22:07:13 0° 69° (ENE) 2,358 -0.2 -8.8°
